Location: Campbell Hill
(37.9301°N, 89.5490°W)
Time: 10:18:00
(UTC+00:00)

Cosmos 1980 - Pass Details

Date: 07 November 2025
Orbit: 836 x 847 km, 71.0° (Epoch: 07 December)

Event Time Altitude Azimuth Distance (km) Brightness Sun altitude
Rises 11:59:35 0° 226° (SW) 3,376 6.5 -6.6°
Reaches altitude 10° 12:02:14 10° 236° (SW) 2,447 5.7 -6.1°
Maximum altitude 12:07:17 34° 300° (WNW) 1,363 4.3 -5.2°
Drops below altitude 10° 12:12:23 10° 4° (N) 2,466 6.0 -4.2°
Sets 12:15:05 0° 14° (NNE) 3,407 6.8 -3.7°
